DateTimeUTC,F1_A11,F1_S11,BsB_S11,BsG_S11,BsR_S11,BbsB_S11,BbsG_S11,BbsR_S11,BaB_A11,BaG_A11,BaR_A11,Tu_S11,T_S11,Uu_S11,U_S11,P_S11,T1_A11
2021-06-22T09:00:00Z,00040200,20000000,,,,,,,0000.03,-000.15,-000.13,17.7,24.6,02.6,01.7,0670.5,31.0
2021-06-22T09:01:00Z,00040200,20000000,,,,,,,-000.15,0000.63,0000.31,17.8,24.7,02.6,01.7,0670.5,31.0
2021-06-22T09:02:00Z,00040200,20000000,,,,,,,-000.03,-000.55,-000.30,17.8,24.7,02.3,01.5,0670.5,31.1
2021-06-22T09:03:00Z,00040200,60000000,,,,,,,0000.38,0000.27,0000.05,17.8,24.7,02.3,01.5,0670.5,31.1
2021-06-22T09:04:00Z,00040200,40000000,0001.14,0000.85,0000.47,0000.32,0000.16,0000.12,0000.74,0001.10,0000.88,18.1,24.6,02.5,01.7,0671.4,31.1
2021-06-22T09:05:00Z,00040200,00000000,0001.04,0000.90,0000.41,0000.31,-000.10,0000.01,0000.50,0000.04,-000.03,18.2,24.6,02.5,01.7,0671.5,31.1
2021-06-22T09:06:00Z,00040200,00000000,0000.64,0000.72,0000.42,0000.23,0000.17,0000.15,0000.24,0000.47,0000.62,18.1,24.5,02.6,01.8,0671.5,31.1
2021-06-22T09:07:00Z,00040200,00000000,0001.20,0000.59,0000.30,-000.21,0000.21,0000.10,0000.36,0000.37,0000.33,18.1,24.5,02.5,01.7,0671.5,31.1
2021-06-22T09:08:00Z,00040200,00000000,0000.01,0000.79,0000.36,-000.01,0000.18,0000.14,0000.40,-000.04,0000.04,18.0,24.5,02.5,01.7,0671.5,31.0
2021-06-22T09:09:00Z,00040200,00000000,0001.00,0000.71,0000.37,0000.24,0000.03,0000.15,0000.72,0000.57,0000.35,18.0,24.5,02.5,01.7,0671.5,31.1
2021-06-22T09:10:00Z,00040200,00000000,0001.37,0000.60,0000.57,0000.11,-000.10,0000.12,0000.37,0000.49,0000.51,18.0,24.4,02.6,01.7,0671.4,31.0
2021-06-22T09:11:00Z,00040200,00000000,0000.55,0000.67,0000.36,0000.09,0000.18,0000.21,0001.04,0000.75,0000.43,17.9,24.4,02.6,01.8,0671.4,31.0
2021-06-22T09:12:00Z,00040200,00000000,0001.32,0000.56,0000.34,0000.18,0000.26,0000.09,0000.20,0000.78,0000.72,17.9,24.4,02.7,01.8,0671.5,31.0
2021-06-22T09:13:00Z,00040200,00000000,0001.33,0000.71,0000.41,0000.99,0000.26,-000.15,0000.86,0000.50,0000.56,17.9,24.4,02.6,01.8,0671.4,31.0
2021-06-22T09:14:00Z,00040200,00000000,0001.54,0000.93,0000.62,0000.80,0000.23,0000.05,0000.84,0000.68,0000.56,17.9,24.4,02.6,01.8,0671.5,31.0
2021-06-22T09:15:00Z,00040200,00000000,0000.69,0000.63,0000.42,-000.28,0000.21,0000.10,0000.37,0000.60,0000.32,18.0,24.4,02.7,01.8,0671.5,31.0
2021-06-22T09:16:00Z,00040200,00000000,0001.24,0001.05,0000.42,-000.12,0000.31,0000.03,0000.86,0000.67,0000.78,18.1,24.4,02.7,01.8,0671.5,31.0
2021-06-22T09:17:00Z,00040200,00000000,0000.79,0000.61,0000.43,0000.14,0000.07,0000.34,0000.52,0000.77,0000.38,18.2,24.5,02.8,01.9,0671.5,31.0
2021-06-22T09:18:00Z,00040200,00000000,0001.08,0000.68,0000.59,-000.18,0000.24,0000.04,0000.61,0000.32,0000.22,18.3,24.5,02.7,01.8,0671.5,31.1
2021-06-22T09:19:00Z,00040200,00000000,0000.42,0001.02,0000.54,0000.02,0000.37,0000.18,0001.01,0000.97,0000.54,18.3,24.5,02.7,01.8,0671.5,31.1
2021-06-22T09:20:00Z,00040200,00000000,0001.22,0000.76,0000.53,-000.05,0000.31,-000.01,0000.26,0000.08,0000.65,18.3,24.5,02.8,01.9,0671.5,31.1
2021-06-22T09:21:00Z,00040200,00000000,0000.54,0000.80,0000.72,0000.04,0000.34,0000.12,0000.96,0000.93,0000.10,18.3,24.5,02.8,01.9,0671.4,31.1
2021-06-22T09:22:00Z,00040200,00000000,0001.26,0000.63,0000.41,0000.34,0000.38,0000.08,-000.15,0000.13,0000.09,18.2,24.5,02.7,01.9,0671.4,31.0
2021-06-22T09:23:00Z,00040200,00000000,0001.43,0000.62,0000.42,-000.35,0000.36,0000.15,0000.53,0000.97,0000.52,18.2,24.5,02.8,01.9,0671.4,31.0
2021-06-22T09:24:00Z,00040200,00000000,0000.72,0000.64,0000.45,0000.06,0000.07,0000.04,0000.89,0000.31,0000.88,18.1,24.5,02.8,01.9,0671.5,31.0
2021-06-22T09:25:00Z,00040200,00000000,0000.75,0000.85,0000.39,-000.20,0000.27,-000.08,0000.87,0000.44,-000.19,18.1,24.5,02.9,01.9,0671.4,31.0
2021-06-22T09:26:00Z,00040200,00000000,0001.00,0000.45,0000.41,0000.03,0000.22,0000.01,0000.33,0000.77,0001.13,18.1,24.4,02.9,01.9,0671.5,31.0
2021-06-22T09:27:00Z,00040200,00000000,0000.61,0000.44,0000.48,0000.22,0000.19,0000.17,0000.63,0000.43,0000.31,18.0,24.4,02.8,01.9,0671.4,31.0
2021-06-22T09:28:00Z,00040200,00000000,0001.14,0000.61,0000.63,0000.30,-000.07,0000.04,0000.82,0001.24,0000.61,18.0,24.4,02.8,01.9,0671.5,31.0
2021-06-22T09:29:00Z,00040200,00000000,0000.97,0000.68,0000.25,0000.06,0000.31,0000.22,0001.04,0000.67,0000.59,18.0,24.4,03.0,02.0,0671.5,31.0
2021-06-22T09:30:00Z,00040200,00000000,0001.14,0000.80,0000.65,0000.37,0000.10,-000.11,0000.52,0000.39,0000.44,18.1,24.4,02.9,01.9,0671.5,31.0
2021-06-22T09:31:00Z,00040200,00000000,0001.14,0000.78,0000.41,-000.05,0000.24,-000.08,0000.66,0000.83,0000.47,18.2,24.5,03.0,02.0,0671.5,31.0
2021-06-22T09:32:00Z,00040200,00000000,0001.03,0000.69,0000.24,0000.33,0000.02,0000.16,0000.27,0000.37,0000.47,18.3,24.5,02.9,02.0,0671.5,31.1
2021-06-22T09:33:00Z,00040200,00000000,0001.44,0000.72,0000.48,-000.06,0000.17,0000.27,0000.52,0000.31,-000.08,18.4,24.5,03.0,02.0,0671.4,31.1
2021-06-22T09:34:00Z,00040200,00000000,0002.06,0000.77,0000.70,0000.11,0000.12,-000.01,0000.65,0000.51,0000.64,18.4,24.6,02.8,01.9,0671.4,31.1
2021-06-22T09:35:00Z,00040200,00000000,0000.59,0001.00,0000.75,0000.37,0000.11,0000.05,0000.73,0000.58,0000.41,18.4,24.6,02.9,02.0,0671.4,31.1
2021-06-22T09:36:00Z,00040200,00000000,0001.05,0000.59,0000.42,0000.29,0000.21,0000.04,0000.69,0000.61,0000.72,18.3,24.6,02.9,02.0,0671.4,31.1
2021-06-22T09:37:00Z,00040200,00000000,0001.37,0000.77,0000.47,-000.04,0000.36,0000.33,0000.63,0000.65,0000.05,18.3,24.6,02.9,02.0,0671.4,31.0
2021-06-22T09:38:00Z,00040200,00000000,0001.07,0001.05,0000.79,0000.41,0000.18,0000.34,0000.73,0000.76,0001.09,18.2,24.5,03.1,02.1,0671.4,31.1
2021-06-22T09:39:00Z,00040200,00000000,0000.92,0000.53,0000.39,-000.05,0000.01,-000.25,0000.42,0000.17,0000.15,18.2,24.5,03.0,02.0,0671.4,31.0
2021-06-22T09:40:00Z,00040200,00000000,0001.16,0000.85,0000.46,0000.18,0000.11,-000.40,0000.38,0000.31,0000.15,18.2,24.5,02.9,02.0,0671.4,31.0
2021-06-22T09:41:00Z,00040200,00000000,0001.76,0001.12,0000.69,0000.40,0000.35,-000.10,0001.00,0001.26,0000.67,18.1,24.5,03.0,02.1,0671.4,31.1
2021-06-22T09:42:00Z,00040200,00000000,0000.69,0000.63,0000.34,-000.35,0000.24,-000.19,0000.97,0000.22,0000.52,18.1,24.4,03.1,02.1,0671.4,31.0
2021-06-22T09:43:00Z,00040200,00000000,0001.55,0000.70,0000.46,0000.09,0000.19,0000.13,0000.11,0000.68,0000.58,18.1,24.4,03.2,02.1,0671.4,31.0
2021-06-22T09:44:00Z,00040200,00000000,0000.19,0000.59,0000.73,-000.01,0000.09,0000.01,0000.90,0000.69,0000.57,18.1,24.4,03.1,02.1,0671.4,31.0
2021-06-22T09:45:00Z,00040200,00000000,0001.53,0000.53,0000.45,-000.43,0000.27,0000.18,0000.70,0000.89,0000.27,18.2,24.4,03.2,02.2,0671.4,31.0
2021-06-22T09:46:00Z,00040200,00000000,0001.48,0000.61,0000.55,-000.53,0000.04,0000.11,0001.20,0001.07,0000.94,18.3,24.5,03.1,02.1,0671.5,31.1
2021-06-22T09:47:00Z,00040200,00000000,0001.09,0000.73,0000.49,-000.22,0000.10,0000.09,-000.12,-000.37,-000.04,18.4,24.5,03.2,02.2,0671.4,31.1
2021-06-22T09:48:00Z,00040200,00000000,0000.95,0000.77,0000.47,0000.45,0000.44,0000.08,0000.12,0000.55,0000.21,18.4,24.5,03.1,02.1,0671.4,31.1
2021-06-22T09:49:00Z,00040200,00000000,0001.11,0000.54,0000.44,0000.67,0000.38,0000.28,0000.96,0000.70,0000.81,18.4,24.6,03.1,02.1,0671.5,31.1
2021-06-22T09:50:00Z,00040200,00000000,0001.19,0000.85,0000.42,0000.13,0000.39,0000.20,0000.61,0000.77,0000.55,18.4,24.6,03.2,02.2,0671.5,31.1
2021-06-22T09:51:00Z,00040200,00000000,0001.77,0000.66,0000.68,0000.44,0000.36,0000.23,0000.33,0000.14,0000.11,18.3,24.6,03.1,02.1,0671.4,31.0
2021-06-22T09:52:00Z,00040200,00000000,0001.55,0000.83,0000.11,-000.19,0000.00,0000.12,0000.70,0000.81,0000.25,18.3,24.5,03.1,02.1,0671.5,31.0
2021-06-22T09:53:00Z,00040200,00000000,0000.75,0000.70,0000.67,-000.33,0000.40,0000.32,0000.85,0000.11,0000.76,18.2,24.5,03.1,02.1,0671.5,31.1
2021-06-22T09:54:00Z,00040200,00000000,0001.45,0000.66,0000.82,0000.23,0000.15,0000.15,0000.55,0000.84,0000.40,18.2,24.5,03.1,02.1,0671.5,31.0
2021-06-22T09:55:00Z,00040200,00000000,0001.14,0000.43,0000.43,0000.15,0000.38,0000.23,0000.54,0000.59,0000.60,18.2,24.5,03.1,02.1,0671.5,31.0
2021-06-22T09:56:00Z,00040200,00000000,0001.03,0000.80,0000.87,0000.54,0000.04,-000.07,0001.04,0000.75,0000.66,18.1,24.4,03.1,02.1,0671.6,31.0
2021-06-22T09:57:00Z,00040200,40000000,,,,,,,-000.82,-000.32,-000.18,18.1,24.5,02.8,01.9,0671.5,31.0
2021-06-22T09:58:00Z,00040200,60000000,,,,,,,0000.66,0000.19,0000.34,17.9,24.5,03.1,02.0,0670.6,31.0
2021-06-22T09:59:00Z,00040200,20000000,,,,,,,0000.07,0000.50,-000.27,17.9,24.6,03.2,02.1,0670.5,31.0
